Location: *
(10.4782°N, 67.2163°W)
Time: 00:19:27
(UTC+00:00)

Chandra Rocket (1) - Pass Details

Date: 23 May 2024
Orbit: 293 x 10883 km, 28.5° (Epoch: 15 June)

Event Time Altitude Azimuth Distance (km) Brightness Sun altitude
Exits shadow 09:04:03 21° 212° (SSW) 1,277 3.2 -14.9°
Maximum altitude 09:04:48 22° 194° (SSW) 1,356 3.5 -14.7°
Drops below altitude 10° 09:09:42 10° 144° (SE) 3,093 5.8 -13.6°
Sets 09:15:28 0° 132° (SE) 5,504 7.2 -12.3°
